Weather in Brekhovo

Russia / Perm Krai     56°59′31″N   57°25′59″E
temp.,
°C
wind,
m/s
gust,
m/s
humid.,
%
clouds,
%
prec.,
mm/h
press.,
hPa
HPBL,
m
29 july, thu
thu2923:00+8nw228646 0.0 101313
02:00+7wsw228493 0.0 101315
05:00+7w368594 0.0 1013114
08:00+12wsw466789 0.0 1012258
11:00+18w68495 0.0 10111310
14:00+21w794086 0.0 10092705
17:00+21w484579 0.0 10082452
20:00+18wsw375580 0.0 1007139
30 july, fri
fri3023:00+16sw376257 0.0 1008135
02:00+15sw51160100 0.0 1007221
05:00+11sw3976100 0.0 1006126
08:00+14ssw51192100 0.1 1005374
11:00+16ssw61187100 1.1 1003611
14:00+16sw51097100 4.1 1003566
17:00+19w698294 4.3 1003874
20:00+18wsw510905 1.7 1004439
31 july, sat
sat3123:00+16wsw411945 2.0 1004210
02:00+15wsw4895100 0.0 1005144
05:00+14wsw3694100 0.0 100691
08:00+17wsw3689100 0.0 1007195
11:00+19wsw71184100 0.6 1007517
14:00+17s2698100 2.9 1007286
17:00+21s378533 4.5 1006563
20:00+20ssw3587100 3.1 1004103
1 august, sun
sun123:00+17sw499699 3.8 1005188
02:00+17wsw4109783 1.4 1005240
05:00+16wsw489622 1.4 1006149
08:00+18wsw510904 0.1 1007350
11:00+23w57598 0.3 1007822
14:00+24w685089 0.2 10071666
17:00+22w496267 0.2 1008320
20:00+20w3569100 0.0 1009103
2 august, mon
mon223:00+17w227548 0.0 101021
02:00+16w347696 0.0 101072
05:00+14wsw358980 0.0 101176
08:00+18wsw4673100 0.0 1011240
11:00+18wsw41177100 0.1 1012437
14:00+23wsw61064100 0.2 1011751
17:00+25w6115796 0.3 10101604
20:00+22wsw48775 0.3 1010154